Regional Weather Roundup
Issued by NWS State College, PA

Home | Current Version | Previous Version | Text Only | Print | Product List | Glossary On
Versions: 1 2 3 4 5 6 7 8 9 10 11 12 13 14 15 16 17 18 19 20 21 22 23 24 25 26 27 28 29 30 31 32 33 34 35 36 37 38 39 40 41 42 43 44 45 46 47 48 49 50
000
ASUS41 KCTP 121503
RWRCTP

REGIONAL WEATHER ROUNDUP
NATIONAL WEATHER SERVICE STATE COLLEGE PA
1100 AM EDT SAT JUL 12 2014

Note: "fair" indicates few or no clouds below 12,000 feet with no
significant weather and/or obstructions to visibility.

* = STATION THAT DOES NOT REPORT PRECIPITATION /E.G. RAIN...SNOW...ETC/
    THUNDER OR FOG.

PAZ002>004-007>009-013>016-020>023-029>032-121600-
WESTERN PENNSYLVANIA

CITY           SKY/WX    TMP DP  RH WIND       PRES   REMARKS
ERIE           MOSUNNY   78  61  55 N8        30.17R
MEADVILLE      SUNNY     77  62  59 SW6       30.21R
FRANKLIN*      SUNNY     79  59  50 S6        30.22S
NEW CASTLE       N/A     82  59  45 CALM      30.20S
BEAVER COUNTY  SUNNY     81  57  44 S7        30.20
BUTLER*        MOSUNNY   81  61  50 SW5       30.22F
PITTSBURGH INT PTSUNNY   79  60  52 SW5       30.20S
PITTSBURGH     SUNNY     79  59  50 S7        30.20S
INDIANA*       SUNNY     79  57  47 W9        30.25S
LATROBE        MOSUNNY   81  64  57 CALM      30.22S
WASHINGTON CO* SUNNY     81  63  54 S5        30.21F
$$

PAZ004>006-010>012-017>019-024>028-033>037-041-042-045-046-049>053-121600-
CENTRAL PENNSYLVANIA

CITY           SKY/WX    TMP DP  RH WIND       PRES   REMARKS
BRADFORD       MOSUNNY   75  60  59 W6        30.22F
DUBOIS         PTSUNNY   77  61  57 W7        30.21F
CLEARFIELD     SUNNY     78  60  53 SW6       30.21F
JOHNSTOWN      SUNNY     75  58  55 W7        30.25S
ALTOONA        SUNNY     77  65  66 SW5       30.23S
STATE COLLEGE  SUNNY     77  66  69 CALM      30.21F
WILLIAMSPORT   PTSUNNY   76  64  66 S3        30.18F
SELINSGROVE    MOSUNNY   80  70  71 VRB6      30.20F
FT INDIANTOWN  NOT AVBL
CAPITAL CITY   CLOUDY    79  69  71 S8        30.20S
HARRISBURG     PTSUNNY   85  69  58 S8        30.19F
YORK           PTSUNNY   81  69  67 S7        30.20F
$$

PAZ038>040-043-044-047-048-054-055-060>062-067>071-121600-
EASTERN PENNSYLVANIA

CITY           SKY/WX    TMP DP  RH WIND       PRES   REMARKS
SCRANTON       MOSUNNY   80  66  62 N3        30.21F
MOUNT POCONO   PTSUNNY   74  62  66 SW10      30.27S
ALLENTOWN      MOSUNNY   81  64  56 S6        30.22F
QUAKERTOWN*    MOSUNNY   79  66  65 S5        30.24S
READING        PTSUNNY   81  68  64 VRB3      30.21S
LANCASTER      MOSUNNY   79  69  71 S7        30.21F
COATESVILLE    MOSUNNY   79  70  73 SW3       30.24S
POTTSTOWN      MOSUNNY   80  66  62 SW6       30.24S
BLUE BELL      MOSUNNY   81  68  65 SE3       30.22S
DOYLESTOWN     MOSUNNY   78  66  66 CALM      30.22S
WILLOW GROVE   NOT AVBL
NORTH PHILA    MOSUNNY   83  61  47 VRB5      30.24S
PHILADELPHIA   MOSUNNY   80  64  58 CALM      30.22S
$$



USA.gov is the U.S. government's official web portal to all federal, state and local government web resources and services.